Location: Weymouth Pines Observatory
(42.9326°N, 81.3883°W)
Time: 19:38:59
(UTC-05:00)

Daily predictions for brighter satellites

Satellite Brightness Start Highest point End
(mag) Time Altitude Azimuth Time Altitude Azimuth Time Altitude Azimuth
NOSS 2-2 (E) 3.6 18:25:29 10° SSW 18:29:30 63° ESE 18:34:09 10° NE
Cosmos 44 Rocket 3.2 18:26:03 10° NNW 18:30:48 66° NE 18:35:28 10° SE
Cosmos 1975 Rocket 3.1 18:26:53 10° N 18:31:10 58° E 18:35:25 10° SSE
SKYMED 2 3.5 18:26:55 10° NNE 18:31:17 72° ESE 18:35:36 10° S
SL-08 R/B 4.5 18:27:11 10° S 18:33:12 64° E 18:39:19 10° NNE
RESURS DK-1 4.0 18:30:44 10° SW 18:34:34 35° WNW 18:38:25 10° N
Cosmos 2322 Rocket 2.6 18:30:31 10° NNW 18:35:53 43° ENE 18:41:12 10° SE
Okean 1 4.4 18:33:12 10° NNE 18:36:31 24° ENE 18:39:49 10° SE
Cosmos 1340 4.4 18:37:25 10° NNE 18:39:36 15° ENE 18:41:48 10° ESE
Nadezhda 1 Rocket 4.0 18:37:48 10° N 18:43:51 60° E 18:49:49 10° SSE
Meteor 1-28 Rocket 3.2 18:40:35 10° NNE 18:44:23 80° ESE 18:48:12 10° S
Tiangong 2 1.0 18:45:12 10° W 18:48:17 85° S 18:50:56 13° E
Cosmos 1346 Rocket 3.2 18:45:18 10° NNW 18:49:14 67° W 18:53:06 10° S
NOSS 2-2 (D) 3.5 18:45:24 10° SSW 18:49:26 84° SE 18:54:08 10° NE
Cosmos 1536 Rocket 4.4 18:45:53 10° NNE 18:49:51 30° ENE 18:53:47 10° SE
Meteor 1-25 Rocket 4.3 18:45:33 10° S 18:51:00 57° E 18:56:33 10° NNE
Cosmos 1833 Rocket 4.4 18:47:35 10° WSW 18:52:37 33° NW 18:57:41 10° N
NOSS 5 (C) 4.3 18:49:31 10° SW 18:53:05 84° NW 18:56:10 10° NE
Resurs 01 Rocket 2.5 18:49:31 10° SE 18:53:17 28° ENE 18:57:04 10° N
DNEPR-1 R/B 3.8 18:49:17 10° NNW 18:53:27 45° NE 18:57:30 10° SE
COSMOS 2428 4.4 18:51:41 10° N 18:54:45 15° NE 18:56:57 12° ENE
Cosmos 44 2.9 18:55:15 10° NNW 18:59:44 78° NE 19:04:02 10° SE
DELTA 2 R/B (1) 3.8 18:55:53 10° WSW 19:01:25 63° S 19:05:58 15° E
H-2A R/B 3.7 18:59:27 10° SE 19:02:32 25° ENE 19:05:38 10° NNE
FENGYUN 3A 3.9 18:58:16 10° SE 19:03:26 48° ENE 19:08:38 10° N
NOSS 2-2 (C) 3.9 19:02:37 10° SW 19:06:38 67° NW 19:11:22 10° NNE
deb Kosmos-1763 4.2 19:04:06 10° S 19:07:49 55° ESE 19:11:33 10° NNE
Cosmos 1812 2.7 19:06:54 10° N 19:10:46 89° W 19:14:37 10° S
Cosmos 676 Rocket 4.3 19:10:45 10° S 19:15:36 43° ESE 19:20:31 10° NNE
Cosmos 407 Rocket 3.5 19:10:47 10° S 19:15:56 63° ESE 19:21:11 10° NNE
Cosmos 1709 Rocket 4.0 19:11:39 10° SSE 19:17:44 56° E 19:23:44 10° NNE
COSMO-SKYMED 1 4.3 19:15:14 10° N 19:19:11 35° WNW 19:23:06 10° SW
Resurs 1-3 3.9 19:16:43 10° SE 19:20:52 45° ENE 19:25:04 10° N
Okean 2 Rocket 4.1 19:17:08 10° SSW 19:21:28 50° W 19:25:49 10° N
Cosmos 1300 Rocket 4.0 19:21:06 10° SSE 19:25:11 39° E 19:29:19 10° NNE
ATLAS CENTAUR R/B 4.2 19:25:33 10° WNW 19:27:36 13° NW 19:29:36 10° N
Cosmos 2360 Rocket 2.5 19:24:03 10° NNW 19:29:30 46° ENE 19:32:44 23° ESE
FREGAT/IRIS 3.8 19:26:39 10° S 19:29:37 45° W 19:32:36 10° NNW
Cosmos 1980 Rocket 4.4 19:25:16 10° NW 19:29:57 27° WSW 19:34:37 10° SSW
Cosmos 2219 Rocket 3.8 19:30:01 10° N 19:33:20 16° NE 19:33:20 16° NE
Cosmos 1602 3.8 19:30:42 10° S 19:34:26 50° E 19:38:12 10° NNE
SAR-Lupe-4 3.7 19:36:35 45° E 19:37:02 48° ENE 19:40:30 10° N
Cosmos 1190 Rocket 4.2 19:34:23 10° SSW 19:39:32 70° WNW 19:44:45 10° NNE
Cosmos 2151 Rocket 3.9 19:35:08 10° SSW 19:39:37 70° W 19:44:08 10° N
GEOS 3 Rocket 3.9 19:36:22 10° NNE 19:41:35 71° NW 19:46:50 10° SW
ALOS 2.5 19:37:58 10° S 19:42:37 71° WSW 19:47:18 10° NNW
SJ-6B 4.3 19:39:51 10° S 19:43:40 40° W 19:47:26 10° NNW
TSX-5 4.1 19:42:36 10° SSW 19:44:47 37° S 19:44:47 37° S
Cosmos 1140 Rocket 3.6 19:41:51 10° S 19:46:46 49° ESE 19:49:24 26° NE
Cosmos 1833 4.2 19:41:25 10° S 19:47:00 59° ESE 19:51:45 14° NE
Cosmos 1238 Rocket 2.6 19:44:11 10° N 19:46:37 49° N 19:46:37 49° N
Spot 1 3.8 19:49:08 49° SE 19:49:58 62° ENE 19:54:02 10° N
Spot 2 Rocket 3.5 19:45:20 10° SSE 19:50:22 81° WSW 19:55:28 10° NNW
Cosmos 2333 Rocket 3.8 19:46:57 10° N 19:50:09 18° NE 19:50:09 18° NE
Okean 1 Rocket 3.0 19:47:36 10° S 19:52:00 59° E 19:56:25 10° NNE
Cosmos 1461 3.3 19:50:34 10° NW 19:54:30 57° WSW 19:56:31 27° S
Meteor 1-19 Rocket 4.1 19:50:27 10° N 19:56:07 83° ENE 20:01:52 10° SSE
SL-16 R/B 3.4 19:55:09 10° NW 20:00:28 42° WSW 20:05:45 10° S
Okean 1-7 Rocket 3.6 19:57:38 10° N 20:01:49 59° NE 20:01:49 59° NE
Helios 1A 2.8 20:02:04 64° SSE 20:02:39 82° ENE 20:06:51 10° NNW
Cosmos 614 Rocket 4.3 19:58:50 10° S 20:02:46 45° SE 20:02:46 45° SE
Cosmos 1633 3.0 20:00:09 10° SSW 20:03:47 61° W 20:07:28 10° N
Envisat 3.5 20:07:28 41° NE 20:07:28 41° NE 20:11:22 10° N
Meteor 1-13 Rocket 4.4 20:02:34 10° NNW 20:08:04 69° W 20:13:38 10° S
Cosmos 1954 Rocket 4.0 20:03:06 10° SSW 20:08:17 81° WNW 20:13:33 10° NNE
USA 229 DEB 4.2 20:02:35 10° NNW 20:09:16 41° NE 20:10:22 39° ENE
USA 229 4.2 20:02:42 10° NNW 20:09:22 41° NE 20:10:27 39° ENE
Cosmos 1340 4.1 20:11:58 10° NNW 20:15:31 38° W 20:18:11 16° SSW
Cosmos 2322 Rocket 4.1 20:14:58 10° NW 20:19:41 28° WSW 20:24:24 10° SSW
CZ-2D R/B 4.4 20:22:39 37° SW 20:23:22 42° W 20:27:01 10° NNW
Tiangong 2 3.8 20:21:47 10° W 20:22:55 19° WSW 20:22:55 19° WSW
Meteor 1-23 Rocket 4.1 20:19:18 10° N 20:25:09 85° E 20:26:15 61° SSE
Cosmos 1025 Rocket 4.5 20:24:27 10° N 20:26:40 30° N 20:26:40 30° N
Cosmos 2322 3.9 20:23:31 10° NNW 20:29:13 71° WSW 20:30:39 50° S
Resurs 01 Rocket 3.6 20:25:55 10° SSW 20:29:42 28° W 20:33:31 10° NW
Helios 1B rocket 4.5 20:33:19 21° SW 20:33:19 21° SW 20:34:44 10° SSW
Cosmos 1818 4.3 20:27:42 10° SW 20:32:59 50° NW 20:35:28 29° N
Meteor 2-4 Rocket 4.1 20:32:43 10° NNW 20:38:15 61° W 20:40:14 38° SSW
COSMOS 2428 2.9 20:34:19 10° NNW 20:39:00 60° N 20:39:00 60° N
Cosmos 2237 4.2 20:35:05 10° NNW 20:40:31 79° NW 20:40:31 79° NW
Cosmos 2327 Rocket 4.5 20:35:59 10° S 20:42:11 81° W 20:48:32 10° N
BREEZE-M DEB (TANK) 3.9 20:41:02 10° WNW 20:44:45 85° SW 20:44:45 85° SW
DELTA 2 R/B (1) 4.4 20:42:13 10° W 20:46:45 44° SW 20:46:45 44° SW
Cosmos 2237 Rocket 3.9 20:49:53 10° N 20:52:07 22° N 20:52:07 22° N
Cosmos 2184 Rocket 4.5 20:53:26 10° SSW 20:59:40 58° W 21:05:53 10° N
Cosmos 2360 Rocket 3.9 21:08:32 10° NW 21:13:13 27° WSW 21:14:35 24° SW
Cosmos 2219 Rocket 3.8 21:12:32 10° NNW 21:15:05 28° NNW 21:15:05 28° NNW
Cosmos 2333 Rocket 4.1 21:30:03 10° NNW 21:32:10 24° NNW 21:32:10 24° NNW
